Location: Battersea Observatory
(44.4318°N, 76.3841°W)
Time: 00:26:05
(UTC-04:00)

Vanguard 2 - Pass Details

Date: 21 January 2022
Orbit: 552 x 2935 km, 32.9° (Epoch: 19 May)

Event Time Altitude Azimuth Distance (km) Brightness Sun altitude
Rises 21:04:52 0° 226° (SW) 4,540 11.8 -43.3°
Reaches altitude 10° 21:07:44 10° 218° (SW) 3,855 11.2 -43.8°
Enters shadow 21:11:23 24° 202° (SSW) 3,198 10.6 -44.4°
Maximum altitude 21:17:29 39° 154° (SSE) 2,979 - -45.4°
Drops below altitude 10° 21:31:38 10° 94° (E) 5,568 - -47.8°
Sets 21:36:45 0° 88° (E) 6,733 - -48.6°
